GFSSGP_500_spd_132.txt.gz
Wind_Speed
34 35 35 34 36 32 26 16 1 14 11 28 14 21 22 30 12 14 12 13 11 12 12 9 7 4 4 4 4 4 5 5 5 6 7 7 9 9 10 11 13 13 14 14 15 17 19 21 22
37 34 36 37 38 36 27 19 8 20 19 21 16 15 22 26 15 16 10 9 10 12 14 10 6 2 1 2 3 4 5 7 8 9 8 9 11 12 13 14 15 15 16 17 18 20 21 21 22
40 38 37 39 38 39 30 19 25 21 34 21 18 25 28 24 14 13 11 11 10 11 11 8 3 3 3 2 2 4 5 9 10 9 10 10 12 14 15 16 17 16 17 18 21 22 22 22 22
45 43 39 43 42 37 31 24 23 22 31 29 25 20 27 31 23 7 9 9 8 8 11 11 9 7 6 6 5 5 7 9 10 11 14 15 16 16 17 19 20 19 21 22 23 22 22 23 23
51 47 45 43 40 36 31 25 24 25 5 16 30 25 33 23 16 16 17 13 10 11 14 15 13 10 9 9 8 8 8 10 11 14 15 17 17 18 21 22 22 21 22 23 23 23 23 24 24
52 53 50 45 40 39 33 26 26 31 18 13 17 26 36 31 23 24 24 19 14 12 15 16 15 15 14 15 14 12 12 9 13 15 18 19 20 21 22 22 21 21 21 22 23 24 24 26 26
56 53 53 47 40 39 39 16 20 24 21 11 16 26 39 37 30 30 27 26 22 17 13 17 19 17 15 12 16 16 14 14 16 18 20 20 20 21 22 21 21 21 21 22 23 24 25 26 27
56 56 54 50 46 42 17 27 39 38 22 27 22 24 41 47 41 31 32 30 27 23 19 20 21 21 19 16 16 17 17 19 19 21 21 21 21 22 23 23 23 23 24 25 26 26 26 27 27
56 59 59 52 50 44 27 44 28 31 49 42 34 45 42 30 43 40 35 31 29 27 28 29 27 24 22 22 21 20 21 22 23 23 23 23 25 26 26 26 27 27 27 28 27 27 27 26 27
56 57 56 53 48 54 46 22 15 25 46 50 49 50 50 49 18 21 38 38 34 34 37 36 33 31 28 28 26 25 26 28 27 25 25 27 28 30 30 31 31 31 31 30 29 29 29 28 29
57 57 54 40 53 63 46 35 32 35 35 35 43 52 52 38 35 40 40 35 36 37 37 36 35 33 31 30 28 30 31 31 30 28 29 30 33 34 35 34 33 33 33 33 32 31 30 31 33
58 57 54 51 56 66 60 40 43 40 32 38 53 53 50 44 27 40 41 41 38 38 41 41 38 37 34 31 30 31 32 33 33 33 34 34 35 37 36 34 33 34 34 34 33 33 33 32 31
56 55 55 61 64 61 60 60 51 49 50 53 57 56 51 51 32 41 39 42 41 41 48 48 41 37 33 30 30 32 36 36 36 37 38 38 41 41 39 37 37 33 34 36 36 34 33 32 31
58 56 57 57 66 64 62 60 65 60 43 49 55 54 50 48 44 29 28 42 43 40 45 32 31 32 29 29 32 36 38 39 39 40 41 44 45 43 40 40 38 38 38 37 36 35 35 36 33
59 48 49 63 66 69 63 61 66 61 60 63 52 56 52 50 48 45 44 41 50 48 60 23 20 30 32 33 37 38 40 41 42 44 46 44 45 43 42 41 41 41 40 38 38 35 37 36 34
45 50 47 59 58 65 71 65 52 57 63 58 60 49 53 53 53 48 52 51 46 40 9 22 31 33 34 37 40 42 43 45 46 49 50 47 43 45 43 43 44 44 43 40 38 40 37 39 35
44 53 50 43 54 60 69 65 60 48 50 54 54 59 56 54 57 54 54 55 63 57 53 52 43 41 37 42 44 45 47 49 50 50 51 48 44 45 46 45 47 43 39 40 37 37 36 36 35
45 45 48 32 27 41 64 64 67 63 52 50 49 63 58 59 57 58 58 60 66 64 59 51 49 46 51 47 49 51 51 51 52 51 49 50 45 46 47 42 39 44 34 35 37 36 32 36 36
33 39 40 46 31 44 50 55 65 65 64 42 39 50 56 63 66 54 65 66 65 63 56 50 53 53 53 57 55 54 54 53 50 48 46 47 45 48 43 35 40 37 40 36 38 37 38 38 41
34 33 25 26 44 31 42 47 52 63 59 52 38 42 43 69 72 74 64 65 66 59 59 56 54 57 59 56 54 54 55 52 50 48 46 46 45 52 39 30 30 43 41 41 41 41 41 42 41
37 30 24 29 33 41 37 34 42 44 48 44 46 43 52 68 65 74 65 69 68 64 61 59 59 61 53 49 50 52 53 49 50 49 48 46 44 45 48 41 41 46 44 43 43 42 42 42 41
30 36 23 24 30 43 34 31 30 29 42 40 45 43 55 62 69 71 67 66 68 61 62 66 57 46 46 47 48 49 47 49 49 50 49 46 43 45 46 45 44 45 46 45 46 45 43 42 39
24 25 34 26 21 19 19 27 24 23 25 33 27 28 35 50 49 67 73 66 55 47 45 37 40 44 46 47 45 47 47 48 45 47 49 52 46 44 46 47 45 49 48 50 51 46 44 43 43
27 20 16 27 19 26 22 27 23 28 23 19 25 29 23 20 26 24 27 29 32 29 37 41 43 43 44 47 45 45 46 44 43 47 50 51 50 51 50 51 55 55 53 52 52 49 47 46 46
28 25 23 25 28 28 20 24 20 16 19 24 28 22 21 25 28 30 32 30 36 37 39 40 42 42 42 43 44 45 45 46 47 48 53 55 54 55 56 57 57 56 59 53 51 51 51 52 53
32 21 19 18 15 16 15 25 15 22 24 26 27 16 22 28 32 34 36 36 36 41 42 40 40 41 44 46 46 46 46 49 51 51 53 56 56 58 60 55 56 60 59 58 57 57 58 58 59
26 34 28 32 23 17 21 27 32 29 30 23 28 29 27 30 32 32 35 39 36 35 38 39 39 41 44 44 46 46 47 48 51 52 55 54 57 60 63 64 65 66 60 62 63 62 61 62 62
19 19 26 18 23 18 26 32 27 28 27 30 33 31 30 31 33 36 36 35 34 33 37 40 42 43 43 45 45 46 48 48 48 49 48 50 52 54 56 58 59 60 60 60 63 64 64 65 65
26 26 27 20 21 14 15 29 24 28 26 25 27 27 28 29 34 36 36 37 35 38 38 34 38 37 38 39 40 42 44 47 48 50 51 53 55 57 58 60 61 62 63 64 66 66 67 67 67
27 25 19 28 29 29 20 19 18 22 22 21 27 28 33 28 31 34 35 33 33 31 32 35 34 38 42 42 44 47 48 50 52 54 56 58 60 61 63 65 66 67 68 69 70 71 71 71 72

GFSSGP_500_spd_135.txt.gz
Wind_Speed
35 35 35 35 36 30 28 14 2 9 7 9 13 18 14 12 21 16 10 8 8 7 8 9 8 7 6 6 5 6 7 7 7 6 6 7 9 10 11 12 13 15 16 18 19 21 23 23 22
36 37 38 38 38 33 28 14 6 8 15 14 14 15 24 24 26 4 8 7 9 8 8 8 8 7 7 7 7 7 7 8 6 6 7 8 10 11 12 14 16 17 18 18 19 21 21 21 21
39 39 39 40 38 37 30 20 12 9 18 10 15 20 22 29 24 16 14 10 11 10 9 8 7 4 2 3 2 4 5 7 7 8 9 9 10 11 12 15 17 18 17 17 19 19 19 20 21
47 43 42 43 39 34 35 27 18 14 13 12 19 26 27 28 21 15 12 13 10 9 10 9 8 3 4 3 3 2 2 4 4 7 8 10 11 12 14 17 18 17 17 17 17 18 19 19 20
53 49 46 44 39 35 37 32 28 12 21 7 14 28 28 28 23 12 16 10 11 12 10 11 11 9 7 8 5 5 6 5 4 6 8 11 13 14 16 17 18 18 18 18 19 20 20 20 20
54 54 51 44 39 38 41 40 32 21 17 13 14 20 29 30 24 21 20 16 15 11 11 14 14 13 11 10 11 10 9 9 8 8 10 13 15 15 16 18 18 18 19 21 21 22 22 23 22
56 57 53 45 40 41 35 29 25 14 20 19 12 23 27 34 35 29 20 17 21 19 16 13 15 14 14 12 13 16 13 12 14 13 13 15 16 17 18 20 20 20 22 23 24 25 25 25 24
57 57 56 52 45 42 40 21 40 20 13 23 25 24 33 35 37 34 27 24 26 25 23 23 16 15 17 17 17 16 17 18 17 17 17 18 19 20 21 22 23 24 25 26 27 27 27 26 26
60 63 57 53 48 42 42 32 35 39 32 26 28 33 35 33 37 41 35 25 27 26 26 26 26 21 20 21 21 20 21 22 22 21 20 20 22 24 24 26 26 28 28 28 29 29 29 27 26
60 60 58 52 49 51 48 44 35 28 36 32 34 36 43 32 25 10 38 31 29 32 28 30 31 31 29 26 25 25 25 25 25 26 22 22 25 28 29 30 31 32 33 33 31 29 28 27 27
56 59 54 53 54 60 53 55 39 39 37 41 43 47 50 46 42 34 19 31 35 39 38 37 36 35 33 30 29 28 27 28 28 26 25 24 27 30 31 34 35 36 38 36 32 30 28 27 28
57 53 54 48 60 62 61 60 47 51 53 53 54 55 57 57 54 49 54 61 39 37 40 42 41 39 34 30 31 30 30 30 30 28 28 29 31 33 35 37 39 39 39 36 33 31 29 28 28
59 56 53 46 59 62 62 60 51 46 47 57 60 62 57 55 49 40 38 42 40 40 47 48 47 43 32 32 30 31 30 31 31 32 32 32 34 36 38 40 40 40 38 37 33 33 32 32 28
55 56 54 50 57 61 62 65 63 45 49 46 47 46 54 54 53 53 46 51 24 38 40 43 42 37 40 35 29 30 31 32 33 34 35 37 38 40 41 42 42 41 39 38 36 32 34 28 30
54 56 54 50 54 58 61 62 61 62 57 47 37 36 38 45 49 51 45 50 60 47 33 41 8 19 22 36 28 27 34 34 34 35 36 39 40 44 45 45 47 46 42 37 36 34 29 29 28
57 59 58 55 57 61 62 61 58 55 62 60 56 58 54 43 43 47 50 53 58 48 53 52 41 39 13 34 26 29 36 40 40 38 39 41 43 44 49 51 48 47 42 41 40 40 32 30 29
59 60 60 59 58 63 65 63 58 52 56 57 59 61 57 51 52 52 52 56 58 55 60 53 42 37 29 24 34 35 39 41 44 45 47 48 47 46 51 54 49 46 42 36 45 31 28 28 32
62 63 61 62 59 62 62 62 61 56 55 56 58 55 54 52 53 56 61 57 62 63 65 66 60 47 56 55 36 38 43 45 48 48 50 54 51 50 47 48 45 44 34 36 40 27 26 23 24
58 60 63 63 58 54 60 61 53 58 62 62 61 53 44 46 53 61 58 59 57 67 71 69 67 57 50 48 42 45 47 48 50 50 53 52 52 49 44 45 37 35 36 34 32 34 40 24 30
48 43 51 57 42 34 42 37 39 49 63 65 59 61 59 36 34 50 57 62 60 63 71 71 67 59 58 53 50 50 51 53 53 50 49 50 47 48 45 41 41 40 39 32 33 46 33 30 35
49 45 35 30 25 38 34 39 38 43 49 53 56 61 64 61 39 38 43 46 57 57 60 73 68 64 58 58 56 54 56 57 53 49 48 48 45 47 48 45 41 43 42 39 37 38 47 38 37
44 38 33 28 16 28 39 39 48 33 33 42 50 52 56 60 58 44 39 43 50 52 59 70 71 64 61 58 58 52 52 52 50 50 49 48 46 46 52 37 36 37 42 40 38 41 42 42 42
34 29 25 22 19 27 31 33 36 32 33 33 34 39 47 46 48 52 50 43 43 52 62 67 70 78 73 57 55 52 47 44 45 47 47 47 48 45 36 47 38 39 43 44 44 47 48 43 42
21 24 25 24 30 33 30 26 19 28 29 30 27 29 31 31 35 41 45 48 45 54 66 60 57 64 60 43 39 42 47 49 48 47 43 45 49 49 47 50 49 45 44 45 47 53 51 43 47
28 35 37 35 33 32 17 27 22 22 17 16 22 22 24 31 33 31 33 24 29 43 36 32 38 42 41 40 38 43 45 44 44 44 44 51 51 50 50 50 49 48 49 51 51 49 43 59 59
32 23 27 43 38 38 37 27 25 17 16 12 26 26 22 22 23 27 33 20 22 24 24 27 31 32 34 37 39 41 43 44 49 52 52 54 54 54 55 50 51 56 58 58 60 59 60 63 62
31 33 18 22 25 27 27 23 17 22 27 27 22 23 18 19 23 22 25 27 24 27 31 35 36 37 41 42 44 45 46 46 47 50 52 53 53 55 57 58 58 56 57 56 55 57 59 59 60
21 28 27 21 24 29 28 20 26 21 24 23 20 20 19 22 25 30 33 32 30 26 29 37 37 38 38 41 42 43 45 47 47 48 49 50 53 55 55 57 58 60 59 60 61 64 62 61 60
28 39 32 32 27 22 21 25 31 27 25 26 23 22 18 16 22 26 28 28 27 25 29 35 38 39 38 41 42 44 46 45 46 47 49 51 54 55 58 60 63 63 63 65 66 67 67 65 64
24 18 24 30 27 28 18 17 26 27 31 28 26 23 19 23 25 27 30 30 28 30 31 32 32 33 37 35 38 42 45 46 49 51 53 55 56 58 59 62 64 66 69 70 70 70 70 72 72

GFSSGP_500_spd_138.txt.gz
Wind_Speed
40 40 38 38 36 33 24 10 10 14 4 4 16 8 12 21 10 5 8 8 6 5 5 6 4 6 6 7 7 9 9 8 6 6 5 5 7 8 9 10 12 14 14 15 15 16 16 17 18
40 41 41 40 39 35 26 17 17 21 6 9 4 1 6 13 5 12 6 6 7 5 5 6 6 7 7 8 8 8 7 7 6 6 5 6 7 8 9 12 14 15 15 15 16 16 17 18 19
45 42 43 43 41 36 29 22 17 18 23 9 5 5 3 11 16 14 16 11 12 8 6 7 7 7 5 6 6 6 5 5 6 4 5 6 8 10 12 15 16 16 15 15 16 17 18 19 20
49 46 46 45 40 36 33 24 24 12 4 16 8 7 11 12 15 21 14 12 9 5 6 6 6 3 2 3 3 3 1 2 1 2 3 6 8 10 13 15 16 15 15 16 17 18 18 19 21
52 50 48 45 39 41 41 31 28 21 13 9 9 8 11 18 14 14 7 14 10 7 7 8 10 9 5 5 5 3 3 3 3 5 6 8 10 11 13 15 17 17 17 19 20 21 21 21 22
56 55 52 46 40 45 45 43 30 25 21 19 14 18 19 21 19 18 13 17 15 11 9 9 11 12 10 7 7 8 7 7 8 8 9 9 10 12 14 16 18 19 20 21 23 24 24 24 24
57 57 54 45 42 45 42 46 35 29 23 22 20 20 20 23 28 23 18 23 21 17 13 10 10 12 12 10 10 9 9 11 12 13 13 11 11 12 14 16 18 21 22 25 26 27 28 27 26
60 58 56 49 45 41 46 43 39 34 28 32 27 25 25 25 27 26 26 27 25 22 20 19 18 16 14 13 13 14 13 14 15 16 15 15 15 14 15 17 19 22 23 26 28 30 30 29 28
61 62 57 52 48 42 46 46 49 42 38 39 32 32 28 23 23 25 29 31 31 30 25 23 22 23 23 19 18 18 19 19 20 20 20 20 18 18 20 19 21 24 26 28 31 32 31 30 27
61 60 56 49 53 49 50 44 49 45 50 37 41 40 33 31 28 27 30 33 34 31 29 28 26 25 25 24 25 24 23 23 23 23 23 23 21 21 24 24 24 27 29 30 32 32 32 29 28
57 59 55 54 55 56 53 51 48 37 57 46 41 44 43 37 34 21 24 16 38 39 38 34 27 27 28 27 27 26 25 25 27 27 25 25 24 25 26 27 29 31 32 32 33 34 33 30 30
56 53 54 53 58 59 59 56 45 41 44 47 50 44 39 42 36 37 40 26 24 32 49 44 36 25 30 31 30 29 29 29 29 28 27 28 27 28 30 31 33 34 35 35 35 35 32 31 31
59 55 52 50 56 62 65 58 50 51 43 50 49 49 51 47 44 45 45 37 33 38 43 41 46 35 33 32 30 33 36 34 29 29 28 30 30 30 31 34 36 38 38 38 39 37 33 33 30
58 55 52 49 55 59 61 65 62 51 53 51 52 51 51 50 49 51 56 48 48 45 55 64 53 49 42 35 35 37 38 33 31 32 30 31 32 31 32 36 40 40 40 42 41 38 36 34 31
54 57 55 53 55 59 60 66 63 57 54 54 53 53 53 55 59 55 56 50 53 51 45 51 62 32 40 29 23 32 34 34 35 33 32 33 35 36 35 39 43 43 42 41 40 41 39 34 34
55 55 55 50 56 58 60 59 58 62 66 60 47 46 46 40 39 38 39 35 37 43 46 45 42 21 41 16 23 40 30 33 32 33 36 35 37 38 40 42 45 45 43 40 38 38 36 38 32
59 57 54 51 55 59 57 57 56 61 65 64 62 45 40 41 45 49 51 53 50 55 51 45 42 43 37 36 34 38 26 32 40 41 39 41 43 41 42 45 48 48 46 42 41 30 31 36 30
52 55 55 51 56 56 57 56 56 58 63 65 64 62 63 59 60 58 56 58 58 57 55 52 46 45 41 46 50 34 39 46 50 48 48 47 45 44 44 46 47 48 45 39 38 37 36 30 29
51 54 55 55 55 57 58 59 58 53 56 61 63 63 61 55 55 61 60 59 63 58 58 52 49 46 44 44 46 48 47 50 52 50 48 50 49 50 49 48 45 46 44 42 40 41 37 28 37
48 53 55 56 55 58 60 60 57 54 51 53 54 57 58 54 56 60 58 56 55 52 50 49 48 52 52 48 42 45 48 52 54 52 51 53 53 53 49 50 45 43 43 43 41 43 33 36 41
49 53 56 57 57 57 60 62 60 54 52 53 51 50 54 56 57 56 55 49 45 41 47 46 45 47 52 53 52 50 51 52 49 51 55 54 57 57 44 41 44 43 44 44 34 39 38 33 39
44 46 49 51 52 57 55 56 50 50 57 52 49 48 47 51 56 58 62 61 43 41 41 43 48 49 51 54 53 54 56 60 62 64 60 55 54 51 46 42 42 41 43 37 42 44 45 37 33
31 34 39 39 34 39 37 49 54 43 47 50 55 46 39 40 47 53 57 58 61 54 56 53 47 50 55 52 47 54 58 59 62 55 48 50 50 49 45 42 39 40 45 48 45 47 44 40 35
25 34 32 34 38 41 39 41 47 46 43 44 45 45 31 28 33 38 45 47 51 48 55 51 50 45 50 53 50 52 53 52 51 50 49 42 45 44 46 43 44 46 45 45 47 45 41 44 46
30 37 30 26 29 31 26 27 28 24 27 35 38 40 39 31 30 21 29 37 38 40 42 44 45 39 38 40 44 42 44 43 44 43 43 46 45 46 50 51 50 52 46 46 45 48 50 52 56
25 40 33 30 28 24 21 24 26 11 18 19 21 28 32 33 22 26 29 33 35 30 29 27 25 26 31 36 37 34 37 38 41 43 44 49 49 50 53 56 55 56 55 52 47 50 59 54 55
25 28 21 23 24 27 27 28 24 22 28 29 26 24 21 21 26 28 32 30 31 34 34 29 28 30 34 37 39 40 42 45 47 48 49 52 53 54 55 56 57 57 59 58 58 59 59 52 60
29 24 26 28 31 38 39 38 37 32 33 32 27 25 17 18 20 24 27 29 31 31 28 30 34 38 38 38 38 40 41 46 49 49 51 51 52 53 54 55 55 56 56 59 60 61 62 64 64
24 28 29 24 20 39 35 33 33 36 37 31 28 28 22 22 24 21 24 28 27 25 29 33 35 36 36 37 37 38 42 45 45 45 47 49 50 52 54 56 57 59 61 63 64 65 66 67 68
24 29 28 27 31 24 27 24 33 34 35 25 29 32 30 26 20 20 20 15 20 25 24 26 28 31 31 30 32 35 41 45 46 48 51 53 55 55 57 59 61 63 66 68 68 68 70 72 74

GFSSGP_500_spd_141.txt.gz
Wind_Speed
41 40 38 37 37 33 31 22 23 10 8 11 21 23 22 18 15 12 5 1 3 3 2 2 4 7 8 9 9 9 8 8 7 6 6 6 6 7 7 10 12 13 14 14 14 15 15 15 17
45 42 42 40 41 33 30 21 21 16 12 7 14 23 22 13 8 12 5 1 5 6 4 4 5 6 8 9 9 8 7 5 5 5 4 4 5 6 7 11 12 12 12 13 15 16 16 17 19
47 45 45 45 43 38 30 23 20 18 15 12 8 10 15 16 4 4 3 6 7 8 7 4 7 8 8 7 6 6 5 4 4 3 3 4 6 7 9 10 11 12 12 14 16 18 20 20 21
50 48 48 48 43 41 31 31 19 22 19 20 10 11 11 10 5 4 1 5 8 7 8 5 9 8 5 5 3 3 1 1 1 2 4 7 9 10 10 10 12 13 14 16 18 20 22 23 23
52 51 50 47 45 43 38 34 27 30 24 21 20 17 17 13 7 7 8 10 14 10 11 11 10 5 2 2 2 4 2 2 3 4 5 8 10 12 12 13 14 14 16 17 19 22 24 25 26
62 53 53 48 45 44 43 41 33 32 36 32 22 23 18 16 13 13 10 20 18 15 13 13 12 10 7 6 3 5 7 6 7 7 7 8 10 12 13 13 16 18 19 20 22 24 26 27 28
62 60 52 45 44 46 50 48 42 33 34 38 31 23 21 18 17 20 16 21 19 17 13 12 8 6 5 5 6 6 5 7 8 10 10 11 12 14 15 16 16 18 20 22 24 26 28 28 27
61 60 57 47 46 46 51 51 44 40 36 36 34 24 23 24 22 23 22 20 24 22 20 16 13 10 8 5 6 9 11 12 13 14 14 15 16 17 17 18 18 19 21 23 26 27 29 30 29
62 63 58 51 47 48 49 52 56 44 41 39 34 31 30 23 21 24 26 26 26 26 24 23 22 17 15 15 15 15 15 16 17 18 18 19 20 19 19 21 21 21 23 26 27 28 30 31 31
64 63 56 55 50 48 49 50 58 54 42 43 42 34 33 31 27 23 26 26 25 27 29 29 28 28 24 23 21 20 18 18 19 21 22 22 23 22 22 22 23 24 26 27 29 31 33 32 32
60 62 57 54 56 52 49 49 53 56 52 45 47 41 35 33 34 32 29 34 34 27 26 29 33 34 33 30 27 25 20 22 24 24 25 24 24 26 27 27 27 27 28 29 31 32 33 34 34
60 57 55 59 58 60 53 49 53 56 54 51 46 42 40 36 35 35 36 29 24 31 28 34 34 36 37 35 35 33 28 24 29 31 27 27 27 28 29 30 30 32 32 34 34 34 35 35 35
61 55 53 55 61 59 61 54 50 52 56 52 51 52 47 40 36 37 34 29 26 20 24 36 35 38 37 38 42 46 38 30 32 33 30 32 32 30 28 30 32 34 34 36 37 36 35 34 33
61 57 52 50 57 63 60 61 52 48 53 57 59 48 54 55 44 39 33 29 38 34 31 29 27 30 34 37 47 43 40 37 38 35 34 36 36 31 31 34 36 38 40 40 39 37 36 33 36
59 57 55 50 54 57 62 64 59 51 50 53 58 53 49 46 43 43 42 40 40 38 41 39 40 36 33 32 51 58 49 37 30 26 33 37 31 33 36 37 40 42 43 44 42 40 36 35 34
58 56 54 51 51 55 61 61 57 63 53 52 55 58 52 50 43 40 42 45 42 39 30 28 25 24 31 34 40 37 41 41 43 35 39 34 33 37 44 42 43 44 44 42 43 41 38 38 34
57 57 58 52 54 56 58 59 64 63 64 60 57 57 59 58 53 46 40 42 37 37 34 30 30 31 34 33 39 26 30 36 34 36 38 40 33 43 48 49 44 46 47 46 43 42 40 34 37
55 54 55 52 55 57 57 57 60 65 65 68 65 62 62 60 56 54 56 46 43 49 52 46 41 43 39 35 32 27 23 30 35 37 40 42 51 46 50 51 48 45 46 46 44 40 37 35 40
52 53 52 51 54 56 57 57 56 60 61 65 68 69 66 65 66 61 57 54 57 59 63 60 52 46 39 36 35 32 31 34 29 39 45 49 53 53 52 52 51 50 50 48 45 40 40 42 40
48 48 49 49 50 56 57 58 57 55 55 58 65 66 68 68 66 63 62 60 61 64 62 59 47 42 36 30 31 36 37 38 37 39 41 47 51 49 50 51 52 53 51 45 45 46 44 40 35
43 45 45 46 50 54 56 58 57 55 56 56 58 58 60 63 63 64 63 63 61 60 57 55 44 31 35 34 35 35 36 38 40 39 43 47 46 48 52 54 49 49 45 44 44 44 43 40 35
42 46 47 48 50 55 57 58 57 57 56 51 52 55 58 59 60 62 62 62 62 58 55 54 53 48 32 33 32 32 37 37 39 41 41 40 46 53 50 47 46 44 43 43 44 43 44 43 44
38 43 48 48 51 53 57 60 58 57 56 51 50 52 51 53 55 56 57 56 55 55 54 55 59 61 56 52 49 44 45 46 46 45 45 44 45 44 45 47 48 44 44 46 45 44 47 46 46
32 39 38 38 41 53 56 60 61 57 55 51 45 45 45 47 51 52 52 47 43 42 46 49 55 56 57 50 48 45 50 51 47 44 43 44 41 45 46 46 45 47 46 45 46 48 50 49 48
34 38 38 36 38 54 54 54 59 54 46 39 41 35 34 38 42 33 25 26 33 35 38 41 46 49 46 45 43 38 37 36 35 36 37 37 38 40 44 45 45 48 51 53 55 52 53 48 53
39 40 41 38 42 45 28 41 46 37 40 40 41 44 44 41 34 35 33 26 30 37 45 47 45 43 38 35 35 36 38 41 42 43 45 46 46 47 48 51 53 54 55 55 56 57 56 54 56
33 38 28 30 26 27 31 31 33 32 33 33 39 50 53 42 32 31 36 34 38 41 42 36 34 37 40 41 41 42 43 45 46 49 50 51 51 51 53 53 55 57 57 57 58 59 58 58 57
25 28 27 30 25 17 20 19 27 33 23 23 27 32 33 35 34 31 29 31 32 34 34 32 33 37 42 41 42 44 45 47 49 50 50 51 52 53 53 53 56 57 58 57 58 61 61 62 61
24 30 30 22 21 18 18 24 28 31 32 23 30 34 31 25 25 24 23 27 30 32 32 32 30 32 37 39 42 43 45 47 46 45 46 46 48 50 52 55 57 59 62 63 66 66 67 67 67
26 25 26 22 25 21 19 26 36 32 33 33 30 37 30 25 23 21 22 26 27 25 22 23 26 27 31 35 37 39 38 38 40 44 47 50 52 55 56 59 63 65 67 69 71 72 73 73 74

GFSSGP_500_spd_144.txt.gz
Wind_Speed
41 40 40 38 37 34 31 33 28 24 21 19 21 20 19 19 16 14 13 7 4 1 2 5 5 8 9 11 12 12 12 12 11 10 8 6 4 5 6 10 10 11 11 12 14 15 17 19 20
44 42 43 42 42 39 37 33 29 24 15 10 19 26 21 20 18 15 14 8 5 3 2 5 8 9 10 11 12 10 9 10 9 7 5 4 4 5 7 9 10 11 12 14 15 17 19 21 23
47 45 45 46 46 41 43 37 34 26 16 10 24 21 28 22 19 16 14 7 7 6 4 6 8 9 10 10 9 9 8 8 6 3 4 4 6 7 9 11 12 13 13 14 17 19 20 22 23
51 49 48 48 45 42 38 37 38 31 20 16 19 19 28 24 18 16 12 10 8 8 6 6 8 8 7 7 6 5 5 4 3 1 1 4 7 8 8 9 11 13 14 16 17 19 21 22 24
53 53 52 48 46 44 36 42 38 27 26 22 17 27 30 30 17 17 13 13 11 9 9 9 10 7 4 4 4 4 3 2 2 3 4 6 7 8 10 10 11 13 15 17 19 21 22 24 25
59 58 56 49 46 44 39 41 42 37 28 25 24 23 23 27 21 17 16 11 13 11 10 14 13 10 6 5 5 6 6 5 4 6 8 8 8 10 12 13 13 14 16 18 21 23 24 25 27
63 62 58 50 47 46 46 44 41 41 39 30 23 22 24 22 25 20 15 15 15 15 13 13 13 13 11 9 9 7 5 4 5 7 10 12 11 12 14 15 15 16 17 20 23 24 26 27 28
63 65 61 51 49 47 50 52 45 40 42 43 33 26 22 24 20 24 19 15 19 19 18 16 15 14 13 13 11 10 10 10 10 11 12 14 15 16 16 18 17 17 19 22 24 26 28 29 29
63 65 62 52 50 48 51 53 52 44 42 43 40 33 30 25 25 23 24 20 21 22 21 20 18 16 13 13 13 13 14 14 14 13 15 16 18 19 19 19 21 21 22 25 26 28 30 29 30
63 64 58 57 52 49 49 53 55 52 44 42 45 38 35 36 24 25 24 27 26 24 22 20 18 18 21 22 21 21 21 20 21 20 22 22 20 21 24 24 23 25 25 26 27 28 30 31 33
62 63 59 61 57 50 50 52 52 57 55 42 42 35 33 35 28 25 19 21 29 28 27 26 23 22 24 25 24 25 27 30 34 33 31 30 27 23 26 27 25 27 27 27 27 30 31 32 33
63 59 57 60 65 55 52 50 51 55 60 56 44 40 36 35 35 31 29 26 26 27 30 30 28 26 25 26 22 23 27 31 36 38 43 36 33 32 29 28 26 28 29 31 31 33 34 34 32
64 59 56 57 61 65 56 50 50 53 59 61 54 50 39 38 34 33 30 25 24 26 26 30 28 26 29 27 18 24 26 29 37 38 39 39 36 34 31 25 26 29 31 33 34 36 36 35 35
64 59 55 53 62 64 62 54 48 53 51 56 55 52 53 44 35 36 30 30 30 30 26 15 15 14 20 22 24 26 26 34 37 42 41 41 37 29 29 25 28 34 36 39 38 38 37 36 35
63 59 55 52 55 61 63 63 55 48 46 48 52 51 48 51 50 42 35 32 28 29 24 35 24 20 24 32 28 27 29 32 36 38 47 35 41 42 38 32 33 37 38 40 42 41 38 37 37
60 59 55 51 52 56 63 61 63 52 49 44 47 48 50 47 49 48 43 43 45 38 32 32 34 30 24 22 23 29 30 29 23 27 28 36 40 53 42 42 35 37 42 44 45 47 45 40 42
62 58 56 51 52 54 58 61 62 63 58 51 52 47 48 48 47 46 45 36 40 41 34 30 27 16 18 27 34 34 34 32 31 26 24 38 42 42 43 41 45 45 47 50 50 48 49 48 45
58 56 55 51 54 54 53 57 65 64 63 64 61 53 54 54 50 48 46 48 44 43 40 37 30 28 36 45 43 42 38 37 33 33 33 34 36 37 37 40 50 59 55 51 52 49 51 47 43
55 53 54 54 54 54 53 54 59 65 65 62 64 66 56 56 51 50 49 47 48 50 49 48 47 52 46 47 42 44 37 39 37 37 39 37 35 37 37 43 48 54 58 54 51 52 50 45 43
54 55 52 49 51 53 55 56 53 58 61 64 62 60 60 61 58 59 57 53 54 53 53 51 51 49 46 43 44 40 36 31 32 37 41 40 40 42 44 44 46 49 50 50 50 49 47 47 46
49 50 51 49 50 55 55 57 56 54 56 59 61 62 61 61 59 56 59 62 59 58 56 55 55 54 51 47 42 41 41 40 40 38 37 38 37 38 41 43 43 46 49 49 46 48 46 46 43
45 45 45 46 50 52 54 55 55 53 54 53 54 57 60 59 59 61 62 61 58 59 59 57 58 57 55 52 49 47 46 44 41 40 40 41 44 43 41 41 43 41 43 44 47 45 44 46 46
39 40 42 44 49 52 54 56 54 54 53 52 53 53 54 56 57 57 55 55 55 55 55 55 55 56 54 51 50 47 47 48 48 43 49 48 49 51 55 50 50 48 46 46 48 46 47 49 50
35 39 42 44 47 51 52 56 56 54 51 52 51 51 53 54 55 56 55 53 53 52 51 51 51 50 50 50 50 50 48 47 50 52 52 53 50 51 51 53 51 48 50 50 49 47 46 49 51
37 40 42 45 48 50 51 55 54 54 54 54 53 53 52 54 58 56 54 50 49 46 44 44 42 44 45 45 47 49 49 45 45 47 48 50 44 48 48 45 46 46 46 47 50 51 53 54 56
36 40 45 48 50 52 49 55 55 55 55 50 51 48 53 55 57 57 50 44 40 39 33 35 35 39 41 43 45 47 49 51 47 41 41 44 46 44 45 47 49 51 53 54 56 56 55 57 57
27 32 35 41 44 49 50 52 54 54 51 50 50 46 44 44 45 39 41 43 35 35 37 35 39 41 42 44 46 49 50 48 45 42 43 45 47 49 51 52 53 54 55 56 56 57 57 59 59
23 24 31 40 36 33 35 36 37 36 36 37 33 34 37 42 38 40 40 35 35 39 40 36 33 31 35 38 43 45 47 46 45 45 47 49 51 52 51 52 51 52 53 54 55 56 57 58 60
22 23 22 21 21 17 15 21 20 23 27 29 33 34 36 37 39 42 43 37 35 31 26 26 25 28 29 33 38 41 41 42 42 43 45 46 48 50 50 50 50 52 54 56 59 62 65 67 70
13 13 18 20 21 14 16 17 16 21 30 29 28 31 33 34 35 33 29 25 25 22 23 23 22 22 28 31 34 37 37 38 40 42 43 45 46 47 49 52 55 58 61 65 67 70 73 75 77

GFSSGP_500_spd_147.txt.gz
Wind_Speed
40 39 40 38 37 35 32 31 27 22 20 17 15 17 15 16 16 15 14 10 10 7 8 8 9 9 9 10 12 13 12 11 10 10 10 8 5 6 8 10 11 13 14 15 16 17 19 20 21
44 41 43 42 42 38 35 35 33 26 24 16 22 19 20 20 20 17 17 13 9 6 6 8 10 11 11 11 12 12 11 9 8 7 6 6 6 7 8 10 12 12 12 13 15 17 19 21 22
49 46 44 47 45 41 37 39 35 29 27 15 18 25 25 24 21 19 19 17 13 8 5 8 10 11 12 11 11 11 11 9 7 5 5 5 7 7 7 8 9 10 12 13 15 17 19 21 24
55 52 49 49 45 42 40 41 36 31 28 21 22 30 30 26 23 21 17 16 16 12 8 7 9 11 12 11 11 10 9 7 5 4 2 2 5 6 7 8 9 10 12 14 16 20 21 23 24
59 57 54 49 46 46 47 44 37 33 28 21 24 34 24 26 26 20 17 18 17 14 11 10 9 11 11 10 9 7 5 4 4 4 2 2 4 7 7 8 10 11 12 14 16 19 21 23 24
62 59 59 52 47 48 49 44 44 36 30 27 25 29 30 27 24 26 20 16 17 14 13 13 11 10 7 6 5 5 6 5 6 5 5 6 7 8 10 10 11 14 15 16 18 21 22 22 23
62 60 60 55 49 49 51 50 45 42 35 32 32 22 29 32 30 26 27 19 19 16 13 13 13 11 9 6 5 4 6 6 7 7 8 11 13 15 17 17 15 14 17 18 19 21 24 25 25
61 61 63 56 52 50 52 52 48 45 43 34 26 25 24 24 20 27 24 21 18 17 15 11 10 9 10 9 7 8 9 8 10 11 13 17 19 21 22 22 21 19 18 21 21 22 23 26 28
63 64 59 59 53 52 52 53 53 46 42 39 33 26 30 22 19 22 22 20 18 16 14 12 10 8 7 6 7 9 10 11 14 17 21 24 24 25 26 26 26 26 23 23 24 24 25 26 28
66 65 59 58 57 55 53 51 52 50 44 41 36 35 30 25 23 26 24 25 22 21 20 17 15 13 14 15 15 14 13 14 17 19 21 25 26 28 27 29 28 27 25 23 24 26 26 28 29
66 65 59 59 63 58 54 51 50 51 50 44 40 37 35 32 31 30 24 23 24 24 24 23 20 20 20 19 17 16 17 18 21 22 23 27 28 27 28 30 31 29 24 22 23 26 28 30 32
67 67 60 61 64 64 56 51 50 51 52 50 48 43 39 34 34 32 30 23 19 19 22 25 24 24 23 22 21 19 19 18 24 28 27 30 31 31 32 32 33 28 24 24 25 26 28 30 33
68 66 60 60 64 67 60 52 48 49 51 52 49 49 38 38 36 34 31 28 21 18 18 20 24 25 24 26 26 24 16 21 23 25 30 33 35 39 33 31 29 29 28 29 32 28 29 32 34
67 66 61 59 63 65 66 53 50 50 51 50 52 48 47 35 37 34 33 29 29 23 18 19 21 27 28 15 13 18 24 24 25 27 29 30 36 35 35 36 35 38 35 39 38 33 34 37 39
67 65 62 59 59 65 67 65 51 50 51 50 48 50 51 51 42 37 35 32 31 28 24 23 29 24 9 18 20 27 24 20 25 29 28 30 35 27 29 42 37 43 43 42 43 44 44 42 45
65 62 62 58 56 62 67 69 60 53 53 50 47 45 43 47 50 50 44 34 34 28 24 22 25 25 30 27 27 29 24 28 29 33 36 37 30 27 26 28 34 41 43 44 39 44 53 53 54
64 63 62 59 56 59 63 68 66 59 57 53 48 46 43 41 41 43 42 42 42 35 33 34 35 33 30 24 25 22 29 38 40 40 39 39 38 34 34 32 36 39 42 43 41 47 54 54 55
63 60 58 55 56 57 61 64 65 67 66 56 58 56 49 46 44 39 38 36 35 35 33 33 32 27 23 23 29 31 41 43 42 38 39 40 42 42 38 35 34 39 41 43 48 49 51 52 50
57 57 57 55 56 55 58 63 65 66 68 64 56 46 53 53 51 48 45 42 40 38 38 40 39 39 39 38 39 42 47 47 43 38 36 39 41 44 40 38 42 44 46 47 49 49 49 51 51
58 55 53 52 53 55 57 58 60 62 59 58 59 56 56 49 47 43 43 42 39 37 38 40 42 42 42 44 44 45 45 44 39 38 36 39 39 39 38 40 41 43 46 46 48 48 50 50 50
55 54 52 51 52 55 56 56 56 58 61 61 60 58 57 55 53 52 56 54 49 47 48 48 50 49 49 48 47 49 47 47 45 43 45 46 46 47 46 46 46 46 48 47 47 47 49 48 46
48 49 49 50 52 52 54 54 53 53 54 58 60 61 60 58 57 55 52 50 49 50 49 47 49 53 52 51 51 50 50 47 47 51 52 53 53 51 52 52 51 53 54 55 55 54 53 54 51
42 41 44 49 49 52 52 54 53 55 54 49 52 55 57 58 58 58 56 56 54 53 53 53 52 50 48 47 48 49 50 50 48 51 53 54 55 55 54 57 60 60 61 59 58 58 56 55 54
37 39 41 44 47 49 50 51 53 51 51 54 53 51 51 51 52 52 54 52 52 50 48 46 46 45 45 46 49 50 50 51 53 52 52 52 53 56 56 57 58 58 60 56 58 55 50 51 52
35 36 39 42 45 49 51 50 51 51 52 52 52 53 52 51 51 50 49 50 50 48 47 46 45 43 45 47 49 50 50 51 52 53 52 51 52 54 53 53 56 58 56 58 56 53 53 54 55
41 40 42 46 49 51 51 51 52 51 52 53 53 54 52 51 50 50 49 49 48 46 46 43 42 39 39 43 46 47 48 49 48 48 49 47 47 49 49 51 53 55 58 58 57 57 58 57 58
36 37 39 43 46 48 48 48 52 53 53 53 53 53 52 51 49 49 49 48 43 40 40 38 37 38 39 43 45 46 46 46 49 48 48 47 48 49 49 49 51 52 53 52 52 53 54 55 56
26 25 32 34 37 40 42 43 48 47 49 50 50 49 47 47 48 45 41 35 34 36 38 38 40 43 45 46 46 47 50 49 45 43 42 43 44 44 45 45 46 48 50 51 52 53 55 57 59
27 28 31 30 33 36 41 38 36 36 47 43 41 44 43 45 44 43 34 35 38 39 40 39 39 39 40 43 46 46 45 40 41 36 36 37 37 37 39 42 44 46 49 53 56 59 61 62 65
16 13 16 15 17 19 20 24 23 21 21 21 26 30 33 36 34 34 38 41 41 35 35 35 33 31 30 32 34 34 35 35 32 33 35 37 38 40 42 44 48 53 56 61 64 65 66 65 65